Home   Weather   Rouen   Past weeks

Flag for France Past Weather in Rouen, Upper Normandy, France — Yesterday and Last 2 Weeks

Now
46 °F

Low clouds.


Feels Like: 42 °F
Forecast: 49 / 51 °F
Wind: 8 mph from West

Location: Rouen Airport

Current Time: Feb 20, 2017 at 5:01:43 am

Latest Report: Feb 20, 2017 at 4:00 am


Visibility: 4 mi

Pressure: 30.21 "Hg

Humidity: 93%

Dew Point: 45 °F

Location of RouenLocation

Past Weather in Rouen — Graph

°F

Rouen Temperature Yesterday

Maximum temperature yesterday: 48 °F (at 3:30 pm)
Minimum temperature yesterday: 28 °F (at 8:00 am)
Average temperature yesterday: 40 °F

High & Low Weather Summary for the Past Weeks

 TemperatureHumidityPressure
High57 °F (Feb 15, 1:00 pm)100% (Feb 5, 4:30 am)30.48 "Hg (Feb 5, 4:30 am)
Low28 °F (Feb 19, 8:00 am)58% (Feb 7, 3:00 pm)29.36 "Hg (Feb 5, 8:30 am)
Average41 °F85%30.16 "Hg
* Reported Feb 5 3:00 am — Feb 20 3:30 am, Rouen, Weather by CustomWeather, © 2017

Note: Actual official high and low records may vary slightly from our data, if they occured in-between our weather recording intervals... More about our weather records

Advertising

Rouen Weather History for the Previous 24 Hours

Scroll right to see more
 ConditionsComfort  
Time TempWeatherWind HumidityBarometerVisibility
3:30 am
Mon, Feb 20
45 °FFog.8 mph100%30.21 "Hg2 mi
3:00 am46 °FLow clouds.8 mph93%30.21 "Hg4 mi
2:30 am46 °FLow clouds.8 mph87%30.21 "Hg6 mi
2:00 am46 °FLow clouds.8 mph87%30.24 "HgN/A
1:30 am46 °FOvercast.9 mph87%30.24 "HgN/A
1:00 am46 °FPassing clouds.12 mph87%30.24 "HgN/A
12:30 am46 °FMostly cloudy.10 mph87%30.24 "HgN/A
12:00 am46 °FMostly cloudy.8 mph87%30.24 "HgN/A
11:30 pm
Sun, Feb 19
46 °FMostly cloudy.8 mph87%30.24 "HgN/A
11:00 pm46 °FPartly cloudy.9 mph87%30.24 "Hg6 mi
10:30 pm46 °FMostly cloudy.7 mph87%30.24 "Hg6 mi
10:00 pm46 °FMostly cloudy.6 mph87%30.24 "Hg5 mi
9:30 pm46 °FPassing clouds.5 mph87%30.24 "Hg5 mi
9:00 pm45 °FPartly cloudy.8 mph87%30.24 "Hg4 mi
8:30 pm46 °FOvercast.8 mph87%30.24 "Hg5 mi
8:00 pm46 °FMostly cloudy.7 mph87%30.27 "Hg5 mi
7:30 pm46 °FOvercast.6 mph87%30.24 "Hg6 mi
7:00 pm46 °FMostly cloudy.6 mph87%30.24 "Hg6 mi
6:30 pm46 °FMostly cloudy.3 mph87%30.24 "Hg4 mi
6:00 pm46 °FMostly cloudy.5 mph87%30.24 "Hg5 mi
5:30 pm48 °FOvercast.5 mph82%30.24 "Hg5 mi
5:00 pm48 °FMostly cloudy.5 mph82%30.24 "Hg5 mi
4:30 pm46 °FOvercast.3 mph87%30.24 "Hg5 mi
4:00 pm46 °FMostly cloudy.5 mph87%30.24 "Hg4 mi
3:30 pm48 °FMostly cloudy.5 mph82%30.24 "Hg5 mi
3:00 pm46 °FMostly cloudy.3 mph87%30.24 "Hg6 mi
2:30 pm46 °FOvercast.3 mph82%30.24 "Hg6 mi
2:00 pm46 °FOvercast.5 mph82%30.24 "Hg6 mi
1:30 pm46 °FLow clouds.9 mph82%30.27 "Hg6 mi
1:00 pm45 °FLow clouds.9 mph87%30.27 "Hg4 mi
12:30 pm45 °FPartly sunny.12 mph87%30.27 "Hg4 mi
12:00 pm45 °FPassing clouds.9 mph81%30.27 "HgN/A
11:30 am43 °FPassing clouds.6 mph87%30.27 "HgN/A
11:00 am41 °FSunny.7 mph87%30.27 "Hg10 mi
10:30 am39 °FClear.5 mph100%30.27 "Hg5 mi
10:00 am36 °FClear.6 mph100%30.27 "Hg4 mi
9:30 am32 °FIce fog.3 mph100%30.27 "Hg2 mi
9:00 am30 °FIce fog.5 mph100%30.27 "Hg3 mi
8:30 am30 °FIce fog.3 mph93%30.27 "Hg2 mi
8:00 am28 °FIce fog.3 mph100%30.24 "Hg1 mi
7:30 am30 °FIce fog.5 mph93%30.24 "Hg2 mi
7:00 am30 °FIce fog.3 mph93%30.24 "Hg2 mi
6:30 am30 °FLight fog.3 mph93%30.24 "Hg1 mi
6:00 am30 °FIce fog.2 mph100%30.24 "Hg1 mi
5:30 am30 °FIce fog.3 mph93%30.24 "Hg1 mi
5:00 am32 °FIce fog.3 mph93%30.24 "Hg0 mi
Weather by CustomWeather, © 2017

See weather overviewHow to use our weather pages